Location: Bun Machan
(52.1403°N, 7.3744°W)
Time: 18:05:45
(UTC+00:00)

Cosmos 2233 Rocket - Pass Details

Date: 14 July 2020
Orbit: 954 x 990 km, 82.9° (Epoch: 12 August)

Event Time Altitude Azimuth Distance (km) Brightness Sun altitude
Exits shadow 02:39:39 - 176° (S) 2,819 5.9 -11.4°
Reaches altitude 10° 02:39:58 10° 175° (S) 2,703 5.8 -11.4°
Maximum altitude 02:46:06 67° 95° (E) 1,054 4.3 -10.9°
Drops below altitude 10° 02:52:19 10° 14° (NNE) 2,746 7.7 -10.4°
Sets 02:54:52 0° 12° (NNE) 3,703 8.5 -10.2°
